PSLV DEB

Satellite information

Favourite Embed

Satellite Type and Status

DEBRISIN ORBIT

Key statistics

Satellite PSLV DEB at a glance.

Uptime

8598

Days in orbit

Revolutions

≈ 14.5

Per day

Orbit

SSO

Sun Synchronous Orbit

Inclination

98.3

Latest

Satellite identification and parameters

Extended collection of information and parameters for PSLV DEB.

Object identification

Identified? True

Debris? True

Object name: PSLV DEB

International designator: 2001-049PX

Object number (NORAD): 35339

Object ID (CCSDS): 35339

Country: INDIA (IND)

Current information (Y/N): Y

RCS size: SMALL

Orbital parameters

Period: 99.141 minutes

Inclination: 98.3433 deg

SMA: 7095.701 km

Apoapsis: 821.708 km

Periapsis: 613.424 km

RAAN: 251.5884 deg

Eccentricy: 0.0146768

Argument of periapsis: 308.8787 deg

Mean anomaly: 49.939 deg

Mean motion: 14.52478825 rev/day

Mean motion (dot): 0.00003852 rev/day2

B* drag term: 0.00083077 1/REarth

Two-line elements (TLE)

Creation date: May 6, 2025, 3:54 a.m.

Reference frame: TEME

Reference center: EARTH

Epoch: May 5, 2025, 7:15 p.m. UTC

TLE line 0: 0 PSLV DEB

TLE line 1: 1 35339U 01049PX 25125.80270598 .00003852 00000-0 83077-3 0 9997

TLE line 2: 2 35339 98.3433 251.5884 0146768 308.8787 49.9390 14.52478825179345

Live tracking on map

Real-time ground track for satellite PSLV DEB.

In-orbit conjunctions

A list of the most updated potential collisions computed for object PSLV DEB.

Target Orbit TCA Probability of collision Miss distance Type
SL-14 R/B LEO 2025-04-10 15:58:41 0.0001388603 384.0 (m) ROCKET BODY
CZ-6A DEB LEO 2024-11-06 00:51:57 0.0002013023 784.0 (m) DEBRIS
COSMOS 2251 DEB LEO 2024-10-25 00:24:52 0.0001619023 126.0 (m) DEBRIS
CZ-6A DEB LEO 2024-10-01 09:00:55 0.0002793958 235.0 (m) DEBRIS

Associated space launch

Technology Experiment Satellite (TES) is Indian remote sensing and photo-reconnaissance satellite. The 1108 kg satellite carries a one-meter resolution panchromatic camera is an experimental satellite to demonstrate and validate, in orbit, technologies that could be used in the future satellites of Indian Space Research Organisation (ISRO). It was successfully placed in 572 km Sun-synchronous orbit on 22 October 2001 using the PSLV-C3. The PSLV-C3 also injected two more satellites: PROBA, a Belgian satellite and BIRD, a German satellite.

PSLV DEB was lifted into orbit during the mission ‘PSLV | TES’, on board a PSLV space rocket.

The launch took place on Oct. 22, 2001, 4:53 a.m. from Satish Dhawan Space Centre First Launch Pad.

For more information about the launch, click the button.

Launch to space PSLV | TES
PSLV | TES

Agency: N/A

Status: Launch Successful

Launch date: Oct. 22, 2001, 4:53 a.m. UTC

Rocket: PSLV

Launch pad: Satish Dhawan Space Centre First Launch Pad

Location: Satish Dhawan Space Centre, India

...

Latest news about this satellite

News about space launch
Proba-1’s T-plus 23 years in orbit

Proba-1’s T-plus 23 years in orbit


Newsletter sign-up

Weekly statistics, charts and insights to help you stay on top of the space industry.